Location: Nairn
(57.5833°N, 3.8667°W)
Time: 01:55:44
(UTC+00:00)

Vanguard 1 Rocket - Pass Details

Date: 27 November 2020
Orbit: 655 x 4221 km, 34.3° (Epoch: 20 January)

Event Time Altitude Azimuth Distance (km) Brightness Sun altitude
Exits shadow 03:11:51 29° 187° (S) 5,102 10.8 -40.2°
Maximum altitude 03:15:18 31° 173° (S) 4,772 10.8 -39.7°
Drops below altitude 10° 03:28:05 10° 119° (ESE) 5,022 11.5 -38.2°
Sets 03:31:48 0° 109° (ESE) 5,577 12.0 -37.7°
